User: anonymous   Login
Location: Oberwangen
(47.4286°N, 8.9679°E)
Time: 18:29:58
(UTC+00:00)
Language:

NOAA 16 DEB - Orbit

View from above orbital plane
View from above orbital plane
View from above satellite
View from above satellite

Ground track
Ground track

The orbit data is extracted from the following two-line orbital elements,

1 41406U 00055KK  22222.58928055  .00002323  00000-0  97113-3 0  9991
2 41406  98.9275 352.0847 0044008 242.9639 116.7045 14.26620605336342
Epoch (UTC): 10 August 2022 14:08:33
Eccentricity: 0.0044008
inclination: 98.9275°
perigee height: 771 km
apogee height: 834 km
right ascension of ascending node: 352.0847°
argument of perigee: 242.9639°
revolutions per day: 14.26620605
mean anomaly at epoch: 116.7045°
orbit number at epoch: 33634

The dashed part of the orbit path shows where the satellite is in the earth's shadow,  

DLR